UNAAUNKL

Guest
Details From UNAA - Abakan
To UNKL - Yemelyanovo
Flight Number -
Tags Generated
Created
Modified
Stats Distance 151 nm / 280 km
Max Altitude 0 ft / 0 m
Waypoints 2
Social Downloads 3
Likes 0
Share VATSIM

Download

Looking for another format? Having issues loading an existing format? Contact us
Advertisement - Login to hide

Notes

Generated

Route

UNAA UNKL

ID Type Via Altitude Latitude Longitude Leg Dist Tot Dist Heading (true) Name
O UNAA APT - 0 ft / 0 m 53.74374˚ 91.38316˚ - 0 nm - -
O UNKL APT - 0 ft / 0 m 56.17948˚ 92.46587˚ 150 nm 150 nm 14° / 15° -

Altitude Profile

Advertisement - Login to hide

UNAA

Details ICAO UNAA (ABA)
Name ABAKAN
Region Russia
Timezone Asia/Krasnoyarsk (UTC+7.0)
Stats Elevation 831 ft / 253 m (AMSL)
Location 53.743435° 91.385782°
Runways 3
Magnetic Variation 3.963° E

METAR

UNAA 271930Z 08001MPS CAVOK 12/07 Q1001 R20/090065 NOSIG RMK QFE729

Decode

TAF

TAF UNAA 271652Z 2718/2818 14003G08MPS 9999 SCT030 FM280900 35003G10MPS 9999 SCT020CB TEMPO 2809/2818 26008G15MPS 4000 -SHRA

Decode

Departure Runways

ID Width Length Bearing (true) Bearing (mag) Surface Threshold Offset Overrun Length
02C 263 ft / 80 m 8,117 ft / 2,474 m 24.96° 21.00° Grass 0 ft / 0 m 0 ft / 0 m
02L 92 ft / 28 m 4,243 ft / 1,293 m 24.80° 20.84° Asphalt 0 ft / 0 m 100 ft / 30 m
02R 148 ft / 45 m 10,655 ft / 3,248 m 24.94° 20.98° Asphalt 1,640 ft / 500 m 200 ft / 61 m
20C 263 ft / 80 m 8,117 ft / 2,474 m 204.97° 201.01° Grass 0 ft / 0 m 0 ft / 0 m
20L 148 ft / 45 m 10,655 ft / 3,248 m 204.96° 201.00° Asphalt 820 ft / 250 m 0 ft / 0 m
20R 92 ft / 28 m 4,243 ft / 1,293 m 204.81° 200.85° Asphalt 0 ft / 0 m 100 ft / 30 m

UNKL

Details ICAO UNKL (KJA)
Name YEMELYANOVO
Region Russia
Timezone Asia/Krasnoyarsk (UTC+7.0)
Stats Elevation 942 ft / 287 m (AMSL)
Location 56.172946° 92.493276°
Runways 1
Magnetic Variation 4.106° E

METAR

UNKL 271930Z 06002MPS 020V100 9999 SCT010 07/05 Q1005 R29/CLRD65 NOSIG RMK QFE728

Decode

TAF

TAF UNKL 271658Z 2718/2818 33003G08MPS 9999 SCT020CB TEMPO 2718/2724 3500 -SHRA BKN015CB BECMG 2801/2803 25005G10MPS 7000 -SHRA TEMPO 2803/2815 25010G15MPS 3100 -TSRA FEW004 BKN013CB

Decode

Destination Runways

ID Width Length Bearing (true) Bearing (mag) Surface Threshold Offset Overrun Length
11 197 ft / 60 m 12,113 ft / 3,692 m 113.16° 109.05° Asphalt 0 ft / 0 m 235 ft / 72 m
29 197 ft / 60 m 12,113 ft / 3,692 m 293.21° 289.10° Asphalt 0 ft / 0 m 215 ft / 66 m

Popular Alternatives